Weather History for Ionia, MI

Change the Weather History Date:

Wednesday, February 20, 2013

  Actual Average (KGRR) Record (KGRR)
Temperature  
Mean Temperature 22 °F 28 °F  
Max Temperature 26 °F 35 °F 61 °F (1930)
Min Temperature 19 °F 21 °F -13 °F (1966)
Degree Days  
Heating Degree Days 42 37  
Month to date heating degree days 780  
Since 1 July heating degree days 4487  
Cooling Degree Days 0 0  
Month to date cooling degree days 0  
Year to date cooling degree days 0  
Moisture  
Dew Point 11 °F    
Average Humidity 61    
Maximum Humidity 68    
Minimum Humidity 52    
Precipitation  
Precipitation 0.00 in 0.07 in 1.40 in (1898)
Month to date precipitation 1.21  
Year to date precipitation 3.30  
Snow  
Snow 0.00 in 0.50 in 7.10 in (2011)
Month to date snowfall 11.0  
Since 1 July snowfall 61.0  
Snow Depth -    
Sea Level Pressure  
Sea Level Pressure 30.12 in    
Wind  
Wind Speed 16 mph (WNW)    
Max Wind Speed 20 mph    
Max Gust Speed 32 mph    
Visibility 10 miles    
Events Snow    
T = Trace of Precipitation, MM = Missing Value Source: NWS Daily Summary

Daily Weather History Graph

Daily Weather History Graph

Search for Another Location

Airport:

Trip Planner

Search our weather history database for the weather conditions in past years. The results will help you decide how hot, cold, wet, or windy it might be!

Date:

Astronomy

Feb. 20, 2013 Rise Set
Actual Time 7:29 AM EST 6:18 PM EST
Civil Twilight 7:01 AM EST 6:47 PM EST
Nautical Twilight 6:28 AM EST 7:20 PM EST
Astronomical Twilight 5:55 AM EST 7:53 PM EST
Moon 1:34 PM EST (2/20) 3:54 AM EST (2/20)
Length of Visible Light 11h 46m
Length of Day
10h 48m
Waxing Gibbous, 76% of the Moon is Illuminated
Feb 20
Waxing Gibbous
Feb 25
Full
Mar 4
Last Quarter
Mar 11
New
Mar 19
First Quarter

Hourly Weather History & Observations

Time (EST) Temp. Windchill Dew Point Humidity Pressure Visibility Wind Dir Wind Speed Gust Speed Precip Events Conditions
12:13 AM 20.8 °F 5.5 °F 11.5 °F 67% 29.93 in 10.0 mi WNW 19.6 mph 26.5 mph N/A Snow Light Snow
12:33 AM 20.7 °F 7.6 °F 11.7 °F 68% 29.93 in 7.0 mi West 13.8 mph 21.9 mph N/A Snow Light Snow
12:53 AM 20.7 °F 6.1 °F 11.5 °F 68% 29.94 in 10.0 mi West 17.3 mph 24.2 mph N/A   Overcast
1:13 AM 20.7 °F 5.7 °F 10.4 °F 65% 29.94 in 10.0 mi WNW 18.4 mph 26.5 mph N/A   Overcast
1:33 AM 20.5 °F 6.4 °F 10.2 °F 65% 29.95 in 10.0 mi WNW 16.1 mph 23.0 mph N/A   Overcast
1:53 AM 20.1 °F 6.9 °F 9.0 °F 62% 29.96 in 10.0 mi WNW 13.8 mph 21.9 mph N/A   Mostly Cloudy
2:13 AM 19.9 °F 4.8 °F 9.1 °F 63% 29.97 in 10.0 mi WNW 18.4 mph 25.3 mph N/A   Overcast
2:33 AM 19.8 °F 5.4 °F 8.6 °F 62% 29.97 in 10.0 mi WNW 16.1 mph 21.9 mph N/A   Overcast
2:53 AM 19.4 °F 5.0 °F 8.6 °F 63% 29.98 in 10.0 mi West 16.1 mph 23.0 mph N/A   Overcast
3:13 AM 19.4 °F 4.5 °F 8.6 °F 63% 29.99 in 10.0 mi West 17.3 mph 21.9 mph N/A   Overcast
3:33 AM 19.4 °F 4.5 °F 8.8 °F 63% 29.99 in 10.0 mi WNW 17.3 mph 20.7 mph N/A   Overcast
3:53 AM 19.4 °F 5.0 °F 8.6 °F 63% 30.00 in 10.0 mi West 16.1 mph 20.7 mph N/A   Overcast
4:33 AM 19.4 °F 5.5 °F 9.9 °F 66% 30.01 in 10.0 mi WNW 15.0 mph 19.6 mph N/A   Overcast
4:53 AM 19.4 °F 5.0 °F 10.0 °F 67% 30.02 in 10.0 mi WNW 16.1 mph 19.6 mph N/A   Overcast
5:13 AM 19.8 °F 5.9 °F 9.9 °F 65% 30.03 in 10.0 mi WNW 15.0 mph 20.7 mph N/A   Overcast
5:33 AM 19.8 °F 5.9 °F 9.3 °F 64% 30.03 in 10.0 mi West 15.0 mph 23.0 mph N/A   Overcast
5:53 AM 19.4 °F 5.0 °F 8.8 °F 63% 30.04 in 10.0 mi WNW 16.1 mph 20.7 mph N/A   Mostly Cloudy
6:13 AM 19.4 °F 4.5 °F 9.1 °F 64% 30.04 in 10.0 mi West 17.3 mph 25.3 mph N/A   Overcast
6:33 AM 19.8 °F 4.5 °F 8.6 °F 62% 30.05 in 10.0 mi West 18.4 mph 23.0 mph N/A   Overcast
7:13 AM 20.1 °F 6.9 °F 8.6 °F 61% 30.06 in 10.0 mi WNW 13.8 mph 24.2 mph N/A   Overcast
7:33 AM 20.3 °F 6.1 °F 9.3 °F 63% 30.07 in 10.0 mi WNW 16.1 mph 20.7 mph N/A   Overcast
7:53 AM 20.3 °F 7.2 °F 10.0 °F 65% 30.08 in 10.0 mi WNW 13.8 mph 20.7 mph N/A   Overcast
8:13 AM 20.7 °F 6.6 °F 9.9 °F 63% 30.09 in 10.0 mi WNW 16.1 mph 23.0 mph N/A   Overcast
8:33 AM 20.7 °F 7.1 °F 9.9 °F 63% 30.09 in 10.0 mi WNW 15.0 mph 21.9 mph N/A   Overcast
8:53 AM 21.2 °F 7.8 °F 9.3 °F 60% 30.09 in 10.0 mi WNW 15.0 mph 26.5 mph N/A   Overcast
9:13 AM 22.1 °F 8.5 °F 9.7 °F 59% 30.10 in 10.0 mi WNW 16.1 mph 26.5 mph N/A   Overcast
9:34 AM 22.5 °F 10.5 °F 9.3 °F 57% 30.10 in 10.0 mi WNW 12.7 mph 21.9 mph N/A   Mostly Cloudy
9:53 AM 23.0 °F 9.2 °F 8.2 °F 53% 30.10 in 10.0 mi WNW 17.3 mph 24.2 mph N/A   Mostly Cloudy
10:14 AM 22.8 °F 8.9 °F 7.7 °F 52% 30.11 in 10.0 mi NW 17.3 mph 32.2 mph N/A   Overcast
10:33 AM 23.2 °F 9.4 °F 8.4 °F 53% 30.11 in 10.0 mi NW 17.3 mph 25.3 mph N/A   Overcast
10:54 AM 23.0 °F 9.2 °F 8.8 °F 55% 30.12 in 10.0 mi NW 17.3 mph 21.9 mph N/A   Overcast
11:13 AM 23.2 °F 9.0 °F 9.3 °F 55% 30.12 in 10.0 mi NW 18.4 mph 26.5 mph N/A Snow Light Snow
11:33 AM 23.2 °F 9.4 °F 9.3 °F 55% 30.12 in 7.0 mi NW 17.3 mph 24.2 mph N/A Snow Light Snow
11:53 AM 23.0 °F 9.6 °F 9.3 °F 56% 30.13 in 10.0 mi NW 16.1 mph 24.2 mph N/A Snow Light Snow
12:13 PM 23.9 °F 12.9 °F 10.0 °F 56% 30.13 in 10.0 mi NW 11.5 mph 17.3 mph N/A   Overcast
12:33 PM 23.9 °F 10.8 °F 10.2 °F 56% 30.14 in 10.0 mi NW 16.1 mph 21.9 mph N/A   Overcast
12:53 PM 24.6 °F 11.3 °F 10.4 °F 55% 30.13 in 10.0 mi WNW 17.3 mph 21.9 mph N/A   Overcast
1:14 PM 24.8 °F 13.4 °F 11.3 °F 57% 30.14 in 10.0 mi WNW 12.7 mph 18.4 mph N/A   Overcast
1:33 PM 25.3 °F 13.1 °F 11.3 °F 55% 30.15 in 10.0 mi WNW 15.0 mph 19.6 mph N/A Snow Light Snow
1:53 PM 24.8 °F 13.4 °F 11.7 °F 57% 30.15 in 10.0 mi WNW 12.7 mph 23.0 mph N/A Snow Light Snow
2:13 PM 25.3 °F 13.1 °F 11.8 °F 57% 30.15 in 10.0 mi WNW 15.0 mph 23.0 mph N/A Snow Light Snow
2:34 PM 25.5 °F 12.4 °F 11.8 °F 56% 30.15 in 10.0 mi WNW 17.3 mph 24.2 mph N/A   Overcast
2:53 PM 25.5 °F 13.3 °F 12.2 °F 57% 30.14 in 10.0 mi WNW 15.0 mph 18.4 mph N/A Snow Light Snow
3:13 PM 25.9 °F 12.9 °F 12.2 °F 56% 30.15 in 10.0 mi WNW 17.3 mph 20.7 mph N/A   Overcast
3:33 PM 25.7 °F 13.1 °F 12.0 °F 56% 30.17 in 10.0 mi WNW 16.1 mph 23.0 mph N/A   Overcast
3:54 PM 26.2 °F 13.4 °F 12.6 °F 56% 30.17 in 10.0 mi WNW 17.3 mph 21.9 mph N/A Snow Light Snow
4:13 PM 25.9 °F 13.8 °F 12.4 °F 57% 30.19 in 10.0 mi WNW 15.0 mph 21.9 mph N/A Snow Light Snow
4:34 PM 26.4 °F 14.0 °F 12.7 °F 56% 30.20 in 10.0 mi WNW 16.1 mph - N/A   Overcast
4:53 PM 26.4 °F 15.0 °F 12.7 °F 56% 30.20 in 10.0 mi WNW 13.8 mph 21.9 mph N/A   Overcast
5:13 PM 26.1 °F 15.6 °F 13.8 °F 60% 30.21 in 10.0 mi WNW 11.5 mph 20.7 mph N/A Snow Light Snow
5:33 PM 26.1 °F 14.5 °F 13.6 °F 59% 30.21 in 10.0 mi WNW 13.8 mph - N/A Snow Light Snow
5:53 PM 26.1 °F 15.6 °F 14.2 °F 61% 30.21 in 10.0 mi WNW 11.5 mph - N/A   Overcast
6:13 PM 25.7 °F 14.6 °F 14.4 °F 62% 30.21 in 10.0 mi NW 12.7 mph 23.0 mph N/A Snow Light Snow
6:33 PM 25.7 °F 13.1 °F 14.2 °F 62% 30.21 in 10.0 mi WNW 16.1 mph 20.7 mph N/A   Overcast
6:53 PM 25.7 °F 14.0 °F 14.7 °F 63% 30.22 in 10.0 mi NW 13.8 mph 19.6 mph N/A   Overcast
7:13 PM 25.3 °F 14.1 °F 15.1 °F 65% 30.22 in 10.0 mi NW 12.7 mph 20.7 mph N/A Snow Light Snow
7:33 PM 25.3 °F 13.6 °F 15.1 °F 65% 30.22 in 10.0 mi NW 13.8 mph 18.4 mph N/A Snow Light Snow
7:54 PM 25.3 °F 13.1 °F 15.3 °F 66% 30.22 in 10.0 mi NW 15.0 mph 20.7 mph N/A   Overcast
8:13 PM 25.5 °F 14.9 °F 15.1 °F 65% 30.23 in 10.0 mi NW 11.5 mph 23.0 mph N/A Snow Light Snow
8:33 PM 25.5 °F 14.9 °F 15.4 °F 66% 30.23 in 10.0 mi NNW 11.5 mph 20.7 mph N/A Snow Light Snow
8:53 PM 25.3 °F 14.7 °F 15.6 °F 67% 30.23 in 10.0 mi NNW 11.5 mph 20.7 mph N/A Snow Light Snow
9:14 PM 25.5 °F 14.9 °F 15.1 °F 65% 30.23 in 10.0 mi NNW 11.5 mph 26.5 mph N/A Snow Light Snow
9:33 PM 25.5 °F 12.4 °F 14.4 °F 63% 30.24 in 10.0 mi NNW 17.3 mph 27.6 mph N/A Snow Light Snow
9:54 PM 25.5 °F 13.8 °F 14.0 °F 62% 30.24 in 10.0 mi NNW 13.8 mph 19.6 mph N/A   Overcast
10:13 PM 25.5 °F 15.5 °F 14.0 °F 62% 30.24 in 10.0 mi NNW 10.4 mph 21.9 mph N/A Snow Light Snow
10:34 PM 25.3 °F 15.3 °F 14.0 °F 62% 30.24 in 10.0 mi NNW 10.4 mph 18.4 mph N/A Snow Light Snow
10:53 PM 25.3 °F 15.3 °F 14.4 °F 63% 30.24 in 10.0 mi NNW 10.4 mph - N/A Snow Light Snow
11:33 PM 25.2 °F 12.9 °F 14.9 °F 65% 30.24 in 10.0 mi NNW 15.0 mph 19.6 mph N/A Snow Light Snow
11:54 PM 25.2 °F 14.4 °F 14.4 °F 64% 30.24 in 10.0 mi NNW 11.5 mph 16.1 mph N/A   Overcast